This is the latest recevied weather packets stored in our database for station/object KF4UQS-14. If no packets are shown the sender has not sent any weather packets the latest 10 day(s).
| Time | Temp. | Humidity | Pressure | Rain* | Wind** | Luminosity | Snow |
|---|---|---|---|---|---|---|---|
| 1777649047 | 16.11° C | 52% | 1016.3 hPa | 0 mm | - | 435 W/m² | - |
| 1777648745 | 16.11° C | 51% | 1016.2 hPa | 0 mm | - | 674 W/m² | - |
| 1777648441 | 15.56° C | 51% | 1016.2 hPa | 0 mm | - | 719 W/m² | - |
| 1777648137 | 15.56° C | 53% | 1016.3 hPa | 0 mm | - | 416 W/m² | - |
| 1777647833 | 16.11° C | 52% | 1016.5 hPa | 0 mm | - | 503 W/m² | - |
| 1777647530 | 15.56° C | 53% | 1016.4 hPa | 0 mm | - | 392 W/m² | - |
| 1777647227 | 15.56° C | 52% | 1016.3 hPa | 0 mm | - | 560 W/m² | - |
| 1777646924 | 15.56° C | 53% | 1016.5 hPa | 0 mm | - | 411 W/m² | - |
| 1777646619 | 15.56° C | 51% | 1016.3 hPa | 0 mm | - | 392 W/m² | - |
| 1777646316 | 15.56° C | 52% | 1016.2 hPa | 0 mm | - | 687 W/m² | - |
| 1777646013 | 15° C | 52% | 1016.1 hPa | 0 mm | - | 584 W/m² | - |
| 1777645710 | 15° C | 53% | 1016 hPa | 0 mm | - | 496 W/m² | - |
| 1777645406 | 15° C | 51% | 1016.1 hPa | 0 mm | - | 430 W/m² | - |
| 1777645102 | 15° C | 53% | 1016.3 hPa | 0 mm | - | 394 W/m² | - |
| 1777644799 | 15.56° C | 55% | 1016.3 hPa | 0 mm | - | 483 W/m² | - |
| 1777644497 | 15° C | 57% | 1016 hPa | 0 mm | - | 451 W/m² | - |
| 1777644192 | 15° C | 56% | 1016 hPa | 0 mm | - | 268 W/m² | - |
| 1777643889 | 14.44° C | 57% | 1016.1 hPa | 0 mm | - | 169 W/m² | - |
| 1777643587 | 15° C | 57% | 1016.2 hPa | 0 mm | - | 172 W/m² | - |
| 1777643284 | 14.44° C | 56% | 1016.4 hPa | 0 mm | - | 185 W/m² | - |
| 1777642980 | 14.44° C | 58% | 1016.2 hPa | 0 mm | - | 184 W/m² | - |
| 1777642676 | 15° C | 57% | 1016.1 hPa | 0 mm | - | 173 W/m² | - |
| 1777642373 | 14.44° C | 57% | 1016.3 hPa | 0 mm | - | 125 W/m² | - |
| 1777642070 | 14.44° C | 58% | 1016.2 hPa | 0 mm | - | 103 W/m² | - |
| 1777641766 | 14.44° C | 57% | 1016 hPa | 0 mm | - | 82 W/m² | - |
* Rain latest hour (hover to see other rain measurements)
** Current wind speed in m/s (hover to see current wind gust speed)